Time,TemperatureF,DewpointF,PressureIn,WindDirection,WindDirectionDegrees,WindSpeedMPH,WindSpeedGustMPH,Humidity,HourlyPrecipIn,Conditions,Clouds,dailyrainin,SoftwareType,DateUTC
2013-04-09 05:22:00,34.0,31.0,30.02,NE,46,0.0,1.0,90,0.00,,,0.36,,2013-04-09 10:22:00,
2013-04-09 05:33:00,34.0,31.0,30.02,NE,45,0.0,0.0,90,0.00,,,0.36,,2013-04-09 10:33:00,
2013-04-09 05:43:00,34.0,31.0,30.02,NE,45,0.0,0.0,90,0.00,,,0.36,,2013-04-09 10:43:00,
2013-04-09 05:53:00,34.0,31.0,30.02,NE,46,0.0,1.0,90,0.00,,,0.36,,2013-04-09 10:53:00,
2013-04-09 06:02:00,34.0,31.0,30.02,NE,46,0.0,1.0,90,0.00,,,0.36,,2013-04-09 11:02:00,
2013-04-09 06:12:00,34.0,31.0,30.02,NE,46,0.0,1.0,90,0.00,,,0.36,,2013-04-09 11:12:00,
2013-04-09 07:33:00,34.0,31.0,30.02,NE,45,1.0,2.0,90,0.00,,,0.36,,2013-04-09 12:33:00,
2013-04-09 07:43:00,34.0,31.0,30.02,NE,45,1.0,2.0,90,0.00,,,0.36,,2013-04-09 12:43:00,
2013-04-09 07:53:00,34.0,31.0,30.00,NE,37,0.0,3.0,90,0.00,,,0.36,,2013-04-09 12:53:00,
2013-04-09 08:02:00,34.0,31.0,30.01,NE,47,0.0,3.0,90,0.00,,,0.36,,2013-04-09 13:02:00,
2013-04-09 08:12:00,34.0,31.0,30.01,NE,47,0.0,3.0,90,0.00,,,0.36,,2013-04-09 13:12:00,
2013-04-09 08:22:00,34.0,31.0,30.03,ENE,58,0.0,2.0,90,0.00,,,0.36,,2013-04-09 13:22:00,
2013-04-09 08:32:00,34.0,31.0,30.04,NE,45,0.0,2.0,90,0.00,,,0.36,,2013-04-09 13:32:00,
2013-04-09 08:42:00,34.0,31.0,30.04,NE,45,0.0,2.0,90,0.00,,,0.36,,2013-04-09 13:42:00,
2013-04-09 08:52:00,34.0,31.0,30.02,ENE,58,0.0,2.0,90,0.00,,,0.36,,2013-04-09 13:52:00,
2013-04-09 09:03:00,34.0,31.0,30.01,NE,45,0.0,4.0,90,0.00,,,0.36,,2013-04-09 14:03:00,
2013-04-09 09:12:00,34.0,31.0,30.01,NE,45,0.0,4.0,90,0.00,,,0.36,,2013-04-09 14:12:00,
2013-04-09 09:22:00,34.0,31.0,30.00,NE,46,0.0,13.0,90,0.00,,,0.36,,2013-04-09 14:22:00,
2013-04-09 09:32:00,34.0,31.0,30.01,NE,49,0.0,4.0,90,0.00,,,0.36,,2013-04-09 14:32:00,
2013-04-09 09:42:00,34.0,31.0,30.01,NE,49,0.0,4.0,90,0.00,,,0.36,,2013-04-09 14:42:00,
2013-04-09 09:52:00,34.0,31.0,29.99,NE,47,1.0,4.0,90,0.02,,,0.38,,2013-04-09 14:52:00,
2013-04-09 10:02:00,34.0,31.0,29.98,NE,38,0.0,4.0,90,0.04,,,0.40,,2013-04-09 15:02:00,
2013-04-09 10:12:00,34.0,31.0,29.98,NE,38,0.0,4.0,90,0.04,,,0.40,,2013-04-09 15:12:00,
2013-04-09 10:22:00,34.0,31.0,29.99,NE,41,1.0,5.0,90,0.04,,,0.40,,2013-04-09 15:22:00,
2013-04-09 10:33:00,34.0,31.0,29.99,NE,49,1.0,4.0,90,0.06,,,0.42,,2013-04-09 15:33:00,
2013-04-09 10:43:00,34.0,31.0,29.99,NE,49,1.0,4.0,90,0.06,,,0.42,,2013-04-09 15:43:00,
2013-04-09 10:53:00,35.0,32.0,29.98,NE,51,0.0,4.0,90,0.04,,,0.42,,2013-04-09 15:53:00,
2013-04-09 11:03:00,35.0,32.0,29.99,NE,44,0.0,6.0,90,0.02,,,0.42,,2013-04-09 16:03:00,
2013-04-09 11:13:00,35.0,32.0,29.99,NE,44,0.0,6.0,90,0.02,,,0.42,,2013-04-09 16:13:00,
2013-04-09 11:23:00,35.0,32.0,29.98,NE,43,1.0,4.0,90,0.02,,,0.40,,2013-04-09 16:23:00,
2013-04-09 11:33:00,35.0,32.0,29.98,NE,43,1.0,4.0,90,0.00,,,0.40,,2013-04-09 16:33:00,
2013-04-09 11:42:00,35.0,32.0,29.98,NE,43,1.0,4.0,90,0.00,,,0.40,,2013-04-09 16:42:00,
2013-04-09 11:53:00,35.0,32.0,29.98,NE,41,1.0,6.0,90,0.02,,,0.42,,2013-04-09 16:53:00,
2013-04-09 12:02:00,35.0,33.0,29.98,NNE,26,1.0,5.0,91,0.04,,,0.44,,2013-04-09 17:02:00,
2013-04-09 12:12:00,35.0,33.0,29.99,NE,35,1.0,5.0,91,0.06,,,0.42,,2013-04-09 17:12:00,
2013-04-09 12:23:00,35.0,33.0,29.99,NE,35,1.0,5.0,91,0.06,,,0.42,,2013-04-09 17:23:00,
2013-04-09 12:32:00,35.0,33.0,30.02,North,1,0.0,3.0,91,0.10,,,0.46,,2013-04-09 17:32:00,
2013-04-09 12:42:00,35.0,33.0,30.02,North,1,0.0,3.0,91,0.10,,,0.46,,2013-04-09 17:42:00,
2013-04-09 12:54:00,35.0,33.0,30.02,NNE,31,0.0,3.0,91,0.14,,,0.52,,2013-04-09 17:54:00,
2013-04-09 13:02:00,35.0,33.0,30.04,NNE,23,0.0,1.0,91,0.18,,,0.58,,2013-04-09 18:02:00,
2013-04-09 13:12:00,35.0,33.0,30.04,NNE,23,0.0,1.0,91,0.18,,,0.58,,2013-04-09 18:12:00,
2013-04-09 13:22:00,36.0,34.0,30.03,NE,46,0.0,2.0,91,0.22,,,0.61,,2013-04-09 18:22:00,
2013-04-09 13:32:00,36.0,34.0,30.02,NE,45,0.0,3.0,91,0.24,,,0.67,,2013-04-09 18:32:00,
2013-04-09 13:43:00,36.0,34.0,30.02,NE,45,0.0,3.0,91,0.24,,,0.67,,2013-04-09 18:43:00,
2013-04-09 13:53:00,36.0,34.0,30.00,NE,50,1.0,4.0,91,0.24,,,0.73,,2013-04-09 18:53:00,
2013-04-09 14:02:00,36.0,34.0,30.00,NE,50,1.0,4.0,91,0.24,,,0.73,,2013-04-09 19:02:00,
2013-04-09 14:12:00,36.0,34.0,30.00,NE,50,1.0,4.0,91,0.24,,,0.73,,2013-04-09 19:12:00,
2013-04-09 14:22:00,36.0,34.0,30.00,NE,50,1.0,4.0,91,0.24,,,0.73,,2013-04-09 19:22:00,
2013-04-09 14:32:00,38.0,36.0,29.99,NE,46,0.0,5.0,91,0.14,,,0.73,,2013-04-09 19:32:00,
2013-04-09 14:42:00,38.0,36.0,29.99,NE,46,0.0,5.0,91,0.14,,,0.73,,2013-04-09 19:42:00,
2013-04-09 14:52:00,38.0,36.0,30.01,NNE,25,1.0,4.0,91,0.02,,,0.73,,2013-04-09 19:52:00,
2013-04-09 15:02:00,38.0,36.0,30.01,NNE,22,0.0,6.0,91,0.02,,,0.75,,2013-04-09 20:02:00,
2013-04-09 15:12:00,39.0,37.0,30.00,NE,37,1.0,5.0,91,0.04,,,0.77,,2013-04-09 20:12:00,
2013-04-09 15:22:00,39.0,37.0,30.00,NE,37,1.0,5.0,91,0.04,,,0.77,,2013-04-09 20:22:00,
2013-04-09 15:33:00,39.0,37.0,30.00,NE,46,1.0,10.0,91,0.04,,,0.77,,2013-04-09 20:33:00,
2013-04-09 15:42:00,39.0,37.0,30.00,NE,46,1.0,10.0,91,0.04,,,0.77,,2013-04-09 20:42:00,
2013-04-09 15:52:00,39.0,37.0,30.00,NE,45,2.0,10.0,91,0.04,,,0.77,,2013-04-09 20:52:00,
2013-04-09 16:02:00,39.0,37.0,30.01,NE,44,1.0,6.0,91,0.02,,,0.77,,2013-04-09 21:02:00,
2013-04-09 16:13:00,39.0,37.0,30.01,NE,44,1.0,6.0,91,0.02,,,0.77,,2013-04-09 21:13:00,
2013-04-09 16:22:00,39.0,37.0,30.01,NE,44,1.0,6.0,91,0.02,,,0.77,,2013-04-09 21:22:00,
2013-04-09 16:33:00,39.0,37.0,30.00,NE,45,1.0,5.0,91,0.00,,,0.77,,2013-04-09 21:33:00,
2013-04-09 16:42:00,39.0,37.0,30.00,NE,45,1.0,5.0,91,0.00,,,0.77,,2013-04-09 21:42:00,
2013-04-09 16:53:00,39.0,37.0,30.01,NE,47,0.0,8.0,91,0.00,,,0.77,,2013-04-09 21:53:00,
2013-04-09 17:03:00,39.0,37.0,30.01,NE,38,2.0,7.0,91,0.00,,,0.77,,2013-04-09 22:03:00,
2013-04-09 17:12:00,39.0,37.0,30.01,NE,41,1.0,6.0,91,0.00,,,0.77,,2013-04-09 22:12:00,
2013-04-09 17:23:00,39.0,37.0,30.01,NE,41,1.0,6.0,91,0.00,,,0.77,,2013-04-09 22:23:00,
2013-04-09 17:33:00,39.0,36.0,30.02,NE,36,1.0,7.0,90,0.00,,,0.77,,2013-04-09 22:33:00,
2013-04-09 17:42:00,39.0,36.0,30.02,NE,36,1.0,7.0,90,0.00,,,0.77,,2013-04-09 22:42:00,
2013-04-09 17:53:00,39.0,36.0,30.02,NE,39,1.0,6.0,90,0.00,,,0.77,,2013-04-09 22:53:00,
2013-04-09 18:03:00,39.0,36.0,30.03,NE,42,1.0,5.0,90,0.00,,,0.77,,2013-04-09 23:03:00,
2013-04-09 18:12:00,39.0,36.0,30.04,NE,45,1.0,8.0,89,0.00,,,0.77,,2013-04-09 23:12:00,
2013-04-09 18:22:00,39.0,36.0,30.04,NE,45,1.0,8.0,89,0.00,,,0.77,,2013-04-09 23:22:00,
2013-04-09 18:32:00,39.0,36.0,30.05,NE,45,2.0,6.0,89,0.00,,,0.77,,2013-04-09 23:32:00,
2013-04-09 18:42:00,39.0,36.0,30.05,NE,45,2.0,6.0,89,0.00,,,0.77,,2013-04-09 23:42:00,
2013-04-09 18:53:00,39.0,36.0,30.05,NE,43,1.0,5.0,89,0.00,,,0.77,,2013-04-09 23:53:00,
2013-04-09 19:03:00,39.0,36.0,30.05,NE,43,1.0,5.0,89,0.00,,,0.77,,2013-04-10 00:03:00,
2013-04-09 19:12:00,39.0,36.0,30.05,NE,43,1.0,5.0,89,0.00,,,0.77,,2013-04-10 00:12:00,
2013-04-09 19:22:00,38.0,34.0,30.07,NE,43,1.0,4.0,87,0.00,,,0.53,,2013-04-10 00:22:00,
2013-04-09 19:32:00,38.0,34.0,30.06,NE,48,1.0,4.0,87,0.00,,,0.53,,2013-04-10 00:32:00,
2013-04-09 19:42:00,38.0,34.0,30.06,NE,48,1.0,4.0,87,0.00,,,0.53,,2013-04-10 00:42:00,
2013-04-09 19:52:00,38.0,34.0,30.06,NE,42,2.0,6.0,87,0.00,,,0.53,,2013-04-10 00:52:00,
2013-04-09 20:02:00,38.0,34.0,30.05,NE,41,1.0,5.0,87,0.00,,,0.53,,2013-04-10 01:02:00,
2013-04-09 20:12:00,38.0,34.0,30.07,NE,41,0.0,4.0,87,0.00,,,0.53,,2013-04-10 01:12:00,
2013-04-09 20:23:00,38.0,34.0,30.07,NE,41,0.0,4.0,87,0.00,,,0.53,,2013-04-10 01:23:00,
2013-04-09 20:32:00,38.0,34.0,30.07,NE,46,0.0,4.0,87,0.00,,,0.53,,2013-04-10 01:32:00,
2013-04-09 20:42:00,38.0,34.0,30.07,NE,46,0.0,4.0,87,0.00,,,0.53,,2013-04-10 01:42:00,
2013-04-09 20:53:00,37.0,33.0,30.07,NE,41,1.0,6.0,86,0.00,,,0.53,,2013-04-10 01:53:00,
2013-04-09 21:02:00,37.0,33.0,30.07,NE,40,2.0,6.0,84,0.00,,,0.53,,2013-04-10 02:02:00,
2013-04-09 21:12:00,37.0,33.0,30.07,NE,40,2.0,6.0,84,0.00,,,0.53,,2013-04-10 02:12:00,
2013-04-09 21:22:00,37.0,32.0,30.07,NE,48,2.0,6.0,83,0.00,,,0.53,,2013-04-10 02:22:00,
2013-04-09 21:30:00,36.0,31.0,30.07,NE,42,2.0,5.0,82,0.00,,,0.53,,2013-04-10 02:30:00,
2013-04-09 21:32:00,37.0,32.0,30.07,NE,53,1.0,6.0,82,0.00,,,0.53,,2013-04-10 02:32:00,
2013-04-09 21:42:00,37.0,32.0,30.07,NE,53,1.0,6.0,82,0.00,,,0.53,,2013-04-10 02:42:00,
2013-04-09 21:52:00,36.0,31.0,30.07,NE,42,2.0,5.0,82,0.00,,,0.53,,2013-04-10 02:52:00,
2013-04-09 22:02:00,36.0,31.0,30.07,NE,42,2.0,5.0,82,0.00,,,0.53,,2013-04-10 03:02:00,
2013-04-09 22:12:00,36.0,31.0,30.07,NE,42,2.0,5.0,82,0.00,,,0.53,,2013-04-10 03:12:00,
2013-04-09 22:22:00,36.0,31.0,30.07,NE,42,2.0,5.0,82,0.00,,,0.53,,2013-04-10 03:22:00,